Location: Highridge
(54.0333°N, 114.1333°W)
Time: 14:28:02
(UTC+00:00)

Oscar 19 - Pass Details

Date: 06 December 2023
Orbit: 771 x 789 km, 98.9° (Epoch: 01 March)

Event Time Altitude Azimuth Distance (km) Brightness Sun altitude
Rises 13:05:59 0° 14° (NNE) 3,274 13.9 -21.1°
Reaches altitude 10° 13:08:19 10° 11° (N) 2,344 13.1 -20.8°
Maximum altitude 13:13:24 61° 292° (WNW) 886 10.6 -20.1°
Drops below altitude 10° 13:18:29 10° 213° (SSW) 2,340 12.9 -19.3°
Sets 13:20:49 0° 210° (SSW) 3,267 13.7 -19.0°
